Tracking 23581 objects as of 27-Jul-2021
HD Live streaming from Space Station
objects crossing your sky now

COSMOS 2491 DEB

Track COSMOS 2491 DEB now!
10-day predictions


NORAD ID: 45030
Int'l Code: 2013-076R
Perigee: 1,324.0 km
Apogee: 1,566.9 km
Inclination: 82.4 °
Period: 114.6 minutes
Semi major axis: 7816 km
RCS: Unknown
Launch date: December 25, 2013
Source: Commonwealth of Independent States (former USSR) (CIS)
Launch site: PLESETSK MISSILE AND SPACE COMPLEX (PKMTR)

Note: This is SATELLITE DEBRIS
aabbcc
Your satellite tracking list
Your tracking list is empty




NASA's NSSDC Master Catalog

Two Line Element Set (TLE):
1 45030U 13076T   20064.99065684 +.00002565 +00000-0 +14798-1 0  9996
2 45030 082.4482 158.8051 0155429 262.5177 095.8229 12.56285153006500
Source of the keplerian elements: AFSPC